�������l�o���
Date,Time,MP-1(��Sv/h),MP-2(��Sv/h),MP-3(��Sv/h),MP-4(��Sv/h),MP-5(��Sv/h),MP-6(��Sv/h),MP-7(��Sv/h),MP-8(��Sv/h),����,����(m/s),���J
2024/04/05,00:00,0.493,0.750,0.476,0.925,0.662,0.309,0.545,0.511,�k��,3.5,��
2024/04/05,00:10,0.492,0.750,0.476,0.924,0.664,0.309,0.545,0.512,�k��,4.2,��
2024/04/05,00:20,0.491,0.751,0.475,0.924,0.663,0.308,0.546,0.511,�k�k��,4.5,��
2024/04/05,00:30,0.493,0.750,0.475,0.925,0.665,0.308,0.547,0.512,�k�k��,6.3,��
2024/04/05,00:40,0.493,0.750,0.476,0.925,0.663,0.309,0.546,0.512,�k�k��,6.1,��
2024/04/05,00:50,0.494,0.750,0.475,0.926,0.666,0.309,0.547,0.510,�k�k��,6.8,��
2024/04/05,01:00,0.495,0.751,0.476,0.921,0.665,0.309,0.545,0.511,�k�k��,7.2,��
2024/04/05,01:10,0.492,0.751,0.475,0.923,0.664,0.308,0.545,0.511,�k�k��,7.0,��
2024/04/05,01:20,0.494,0.752,0.476,0.925,0.664,0.309,0.544,0.510,�k�k��,8.5,��
2024/04/05,01:30,0.494,0.750,0.476,0.924,0.665,0.309,0.545,0.511,�k�k��,10.2,��
2024/04/05,01:40,0.493,0.752,0.473,0.925,0.665,0.309,0.547,0.513,�k�k��,10.6,��
2024/04/05,01:50,0.493,0.749,0.476,0.924,0.664,0.308,0.546,0.511,�k�k��,10.5,��
2024/04/05,02:00,0.493,0.750,0.477,0.925,0.666,0.307,0.546,0.512,�k��,9.3,��
2024/04/05,02:10,0.493,0.750,0.473,0.924,0.664,0.308,0.545,0.513,�k��,9.4,��
2024/04/05,02:20,0.492,0.751,0.475,0.924,0.664,0.308,0.546,0.512,�k��,8.1,��
2024/04/05,02:30,0.493,0.750,0.476,0.925,0.664,0.308,0.547,0.511,�k��,7.6,��
2024/04/05,02:40,0.495,0.749,0.475,0.923,0.665,0.309,0.546,0.511,�k�k��,7.0,��
2024/04/05,02:50,0.492,0.750,0.475,0.925,0.665,0.309,0.546,0.512,�k��,7.2,��
2024/04/05,03:00,0.493,0.750,0.475,0.924,0.665,0.308,0.547,0.512,�k��,8.0,��
2024/04/05,03:10,0.493,0.751,0.473,0.924,0.665,0.308,0.546,0.512,�k��,7.8,��
2024/04/05,03:20,0.493,0.750,0.474,0.924,0.665,0.308,0.545,0.512,�k�k��,7.8,��
2024/04/05,03:30,0.492,0.751,0.475,0.925,0.664,0.307,0.546,0.511,�k�k��,7.2,��
2024/04/05,03:40,0.495,0.752,0.475,0.925,0.665,0.309,0.545,0.512,�k�k��,7.4,��
2024/04/05,03:50,0.492,0.752,0.475,0.925,0.665,0.309,0.546,0.511,�k�k��,7.6,��
2024/04/05,04:00,0.493,0.750,0.475,0.926,0.665,0.308,0.545,0.511,�k�k��,7.3,��
2024/04/05,04:10,0.493,0.751,0.475,0.926,0.665,0.308,0.544,0.511,�k�k��,6.2,��
2024/04/05,04:20,0.494,0.751,0.475,0.925,0.665,0.310,0.547,0.512,�k�k��,7.9,��
2024/04/05,04:30,0.494,0.751,0.477,0.926,0.665,0.308,0.545,0.511,�k�k��,6.8,��
2024/04/05,04:40,0.493,0.751,0.477,0.923,0.668,0.308,0.546,0.511,�k�k��,6.7,��
2024/04/05,04:50,0.494,0.750,0.477,0.924,0.664,0.307,0.547,0.512,�k�k��,7.5,��
2024/04/05,05:00,0.494,0.753,0.475,0.926,0.664,0.308,0.546,0.511,�k,7.4,��
2024/04/05,05:10,0.493,0.752,0.475,0.926,0.663,0.308,0.547,0.511,�k,7.8,��
2024/04/05,05:20,0.493,0.750,0.476,0.926,0.665,0.309,0.545,0.511,�k�k��,6.8,��
2024/04/05,05:30,0.492,0.751,0.476,0.926,0.664,0.307,0.546,0.511,�k�k��,7.3,��
2024/04/05,05:40,0.493,0.749,0.475,0.924,0.665,0.308,0.546,0.512,�k�k��,7.9,��
2024/04/05,05:50,0.493,0.752,0.474,0.925,0.664,0.308,0.546,0.511,�k�k��,8.4,��
2024/04/05,06:00,0.492,0.750,0.476,0.924,0.664,0.307,0.546,0.512,�k�k��,6.4,��
2024/04/05,06:10,0.493,0.750,0.475,0.924,0.665,0.308,0.546,0.512,�k�k��,6.0,��
2024/04/05,06:20,0.494,0.753,0.475,0.924,0.665,0.307,0.547,0.511,�k,6.4,��
2024/04/05,06:30,0.494,0.751,0.475,0.924,0.664,0.308,0.548,0.511,�k�k��,7.3,��
2024/04/05,06:40,0.494,0.751,0.475,0.926,0.665,0.309,0.546,0.512,�k�k��,7.8,��
2024/04/05,06:50,0.495,0.752,0.474,0.927,0.664,0.308,0.548,0.512,�k�k��,5.7,��
2024/04/05,07:00,0.494,0.753,0.477,0.926,0.663,0.308,0.548,0.511,�k�k��,5.5,��
2024/04/05,07:10,0.493,0.752,0.474,0.927,0.665,0.308,0.546,0.512,�k�k��,6.1,��
2024/04/05,07:20,0.493,0.753,0.476,0.930,0.664,0.308,0.548,0.513,�k�k��,4.8,��
2024/04/05,07:30,0.495,0.752,0.474,0.926,0.664,0.309,0.546,0.512,�k�k��,4.5,��
2024/04/05,07:40,0.494,0.751,0.476,0.927,0.666,0.308,0.547,0.511,�k�k��,3.6,��
2024/04/05,07:50,0.494,0.753,0.475,0.926,0.664,0.308,0.547,0.512,�k�k��,3.7,��
2024/04/05,08:00,0.494,0.753,0.476,0.928,0.666,0.308,0.545,0.512,�k�k��,6.1,��
2024/04/05,08:10,0.494,0.753,0.476,0.927,0.666,0.308,0.546,0.512,�k�k��,5.4,��
2024/04/05,08:20,0.495,0.754,0.477,0.928,0.665,0.308,0.545,0.512,�k�k��,4.4,��
2024/04/05,08:30,0.494,0.752,0.477,0.928,0.667,0.308,0.547,0.514,�k,4.8,��
2024/04/05,08:40,0.494,0.750,0.477,0.928,0.667,0.308,0.543,0.512,�k,4.5,��
2024/04/05,08:50,0.496,0.752,0.476,0.926,0.668,0.308,0.546,0.513,�k�k��,6.0,��
2024/04/05,09:00,0.496,0.750,0.476,0.928,0.667,0.308,0.546,0.511,�k�k��,6.1,��
2024/04/05,09:10,0.496,0.749,0.476,0.927,0.666,0.306,0.546,0.510,�k�k��,6.5,��
2024/04/05,09:20,0.494,0.751,0.477,0.929,0.668,0.307,0.544,0.512,�k�k��,7.2,��
2024/04/05,09:30,0.495,0.750,0.477,0.930,0.667,0.308,0.545,0.512,�k�k��,6.7,��
2024/04/05,09:40,0.495,0.750,0.475,0.929,0.669,0.306,0.545,0.511,�k�k��,7.2,��
2024/04/05,09:50,0.493,0.751,0.476,0.928,0.665,0.307,0.544,0.510,�k�k��,6.3,��
2024/04/05,10:00,0.495,0.751,0.476,0.930,0.666,0.307,0.545,0.510,�k�k��,6.3,��
2024/04/05,10:10,0.493,0.752,0.476,0.929,0.667,0.308,0.544,0.509,�k�k��,6.9,��
2024/04/05,10:20,0.495,0.750,0.476,0.928,0.666,0.306,0.544,0.510,�k�k��,7.8,��
2024/04/05,10:30,0.496,0.750,0.477,0.929,0.666,0.307,0.546,0.510,�k�k��,7.4,��
2024/04/05,10:40,0.494,0.753,0.476,0.930,0.666,0.309,0.546,0.510,�k�k��,7.5,��
2024/04/05,10:50,0.495,0.753,0.476,0.930,0.666,0.308,0.545,0.509,�k�k��,7.2,��
2024/04/05,11:00,0.494,0.754,0.477,0.929,0.666,0.308,0.546,0.511,�k��,6.5,��
2024/04/05,11:10,0.494,0.752,0.476,0.930,0.667,0.307,0.546,0.512,�k��,5.5,��
2024/04/05,11:20,0.496,0.751,0.477,0.929,0.668,0.307,0.546,0.511,�k��,5.9,��
2024/04/05,11:30,0.495,0.752,0.477,0.929,0.668,0.306,0.547,0.511,�k��,5.8,��
2024/04/05,11:40,0.493,0.751,0.476,0.929,0.669,0.308,0.547,0.511,�k�k��,6.0,��
2024/04/05,11:50,0.495,0.753,0.474,0.930,0.668,0.307,0.546,0.511,�k�k��,5.0,��
2024/04/05,12:00,0.495,0.756,0.476,0.931,0.667,0.308,0.547,0.510,�k��,4.6,��
2024/04/05,12:10,0.494,0.755,0.476,0.931,0.668,0.307,0.547,0.510,�k��,4.5,��
2024/04/05,12:20,0.495,0.757,0.476,0.932,0.668,0.308,0.547,0.511,�k��,3.7,��
2024/04/05,12:30,0.495,0.755,0.476,0.931,0.668,0.307,0.547,0.510,�k�k��,3.6,��
2024/04/05,12:40,0.497,0.757,0.476,0.931,0.669,0.308,0.547,0.512,�k��,4.3,��
2024/04/05,12:50,0.496,0.756,0.476,0.932,0.669,0.309,0.548,0.512,�k��,3.9,��
2024/04/05,13:00,0.497,0.753,0.478,0.933,0.670,0.310,0.547,0.511,���k��,3.7,��
2024/04/05,13:10,0.495,0.757,0.475,0.931,0.668,0.310,0.548,0.510,���k��,3.6,��
2024/04/05,13:20,0.496,0.757,0.476,0.933,0.669,0.308,0.548,0.511,���k��,2.9,��
2024/04/05,13:30,0.497,0.755,0.477,0.931,0.668,0.309,0.548,0.512,��,2.3,��
2024/04/05,13:40,0.497,0.754,0.477,0.933,0.669,0.309,0.546,0.513,���k��,3.1,��
2024/04/05,13:50,0.496,0.756,0.476,0.935,0.669,0.309,0.549,0.512,���쓌,2.8,��
2024/04/05,14:00,0.496,0.756,0.477,0.933,0.670,0.309,0.547,0.512,��,2.8,��
2024/04/05,14:10,0.496,0.756,0.477,0.934,0.670,0.308,0.549,0.511,���쓌,2.3,��
2024/04/05,14:20,0.496,0.757,0.476,0.933,0.669,0.309,0.547,0.511,���쓌,2.8,��
2024/04/05,14:30,0.496,0.758,0.478,0.933,0.672,0.311,0.548,0.511,���쓌,2.2,��
2024/04/05,14:40,0.496,0.757,0.477,0.933,0.670,0.309,0.547,0.512,���쓌,2.6,��
2024/04/05,14:50,0.497,0.757,0.477,0.935,0.670,0.309,0.548,0.513,���쓌,3.4,��
2024/04/05,15:00,0.497,0.759,0.476,0.935,0.671,0.310,0.549,0.511,�쓌,2.9,��
2024/04/05,15:10,0.497,0.756,0.477,0.933,0.672,0.309,0.547,0.511,�쓌,2.3,��
2024/04/05,15:20,0.498,0.756,0.477,0.933,0.671,0.310,0.547,0.511,�쓌,2.5,��
2024/04/05,15:30,0.496,0.759,0.475,0.933,0.669,0.312,0.547,0.510,�쓌,2.5,��
2024/04/05,15:40,0.495,0.758,0.477,0.934,0.670,0.310,0.547,0.510,��쓌,3.6,��
2024/04/05,15:50,0.497,0.760,0.478,0.933,0.669,0.309,0.546,0.511,�쓌,3.0,��
2024/04/05,16:00,0.497,0.760,0.479,0.933,0.670,0.310,0.546,0.510,��쓌,3.4,��
2024/04/05,16:10,0.497,0.759,0.478,0.934,0.668,0.311,0.547,0.511,��쓌,4.2,��
2024/04/05,16:20,0.497,0.760,0.479,0.935,0.670,0.310,0.547,0.510,��쓌,4.4,��
2024/04/05,16:30,0.498,0.761,0.479,0.937,0.671,0.311,0.545,0.511,��쓌,4.0,��
2024/04/05,16:40,0.496,0.761,0.478,0.937,0.670,0.310,0.547,0.511,��쓌,4.3,��
2024/04/05,16:50,0.498,0.761,0.479,0.934,0.670,0.309,0.545,0.511,��쓌,3.9,��
2024/04/05,17:00,0.499,0.760,0.479,0.932,0.670,0.310,0.547,0.512,��쓌,4.1,��
2024/04/05,17:10,0.497,0.761,0.480,0.936,0.670,0.310,0.546,0.515,��,4.5,��
2024/04/05,17:20,0.500,0.762,0.480,0.935,0.670,0.310,0.547,0.514,��,4.0,��
2024/04/05,17:30,0.498,0.763,0.480,0.935,0.673,0.312,0.547,0.512,��,4.2,��
2024/04/05,17:40,0.500,0.760,0.479,0.935,0.673,0.310,0.546,0.513,��,4.2,��
2024/04/05,17:50,0.498,0.759,0.480,0.935,0.674,0.310,0.547,0.513,��,4.1,��
2024/04/05,18:00,0.499,0.761,0.477,0.934,0.675,0.312,0.547,0.513,��,4.6,��
2024/04/05,18:10,0.499,0.761,0.481,0.934,0.674,0.310,0.548,0.513,��,4.5,��
2024/04/05,18:20,0.498,0.760,0.479,0.935,0.673,0.310,0.550,0.514,��,4.1,��
2024/04/05,18:30,0.498,0.760,0.479,0.933,0.673,0.310,0.548,0.514,��쐼,4.6,��
2024/04/05,18:40,0.498,0.761,0.479,0.932,0.672,0.309,0.547,0.513,��쐼,4.6,��
2024/04/05,18:50,0.499,0.761,0.478,0.934,0.673,0.311,0.548,0.512,��쐼,3.1,��
2024/04/05,19:00,0.497,0.760,0.480,0.933,0.673,0.311,0.550,0.514,��쐼,3.9,��
2024/04/05,19:10,0.498,0.761,0.480,0.934,0.674,0.310,0.548,0.512,��쐼,4.3,��
2024/04/05,19:20,0.498,0.761,0.480,0.934,0.672,0.309,0.549,0.513,��쐼,4.6,��
2024/04/05,19:30,0.498,0.759,0.479,0.933,0.672,0.309,0.549,0.513,��쐼,5.5,��
2024/04/05,19:40,0.499,0.760,0.480,0.936,0.674,0.312,0.549,0.513,��쐼,5.2,��
2024/04/05,19:50,0.499,0.760,0.480,0.934,0.671,0.310,0.549,0.514,��쐼,5.1,��
2024/04/05,20:00,0.500,0.761,0.478,0.935,0.673,0.310,0.549,0.512,��쐼,4.4,��
2024/04/05,20:10,0.499,0.760,0.480,0.934,0.673,0.311,0.550,0.513,��쐼,4.1,��
2024/04/05,20:20,0.500,0.761,0.480,0.934,0.673,0.309,0.549,0.512,�쐼,3.7,��
2024/04/05,20:30,0.499,0.761,0.479,0.935,0.674,0.310,0.548,0.513,��쐼,3.9,��
2024/04/05,20:40,0.499,0.760,0.479,0.936,0.673,0.311,0.549,0.512,��쐼,3.9,��
2024/04/05,20:50,0.499,0.761,0.479,0.935,0.672,0.310,0.550,0.513,��쐼,4.2,��
2024/04/05,21:00,0.499,0.759,0.478,0.935,0.671,0.310,0.550,0.511,��쐼,4.4,��
2024/04/05,21:10,0.499,0.758,0.479,0.936,0.672,0.310,0.550,0.512,��쐼,4.4,��
2024/04/05,21:20,0.499,0.761,0.478,0.934,0.673,0.309,0.549,0.513,��쐼,4.6,��
2024/04/05,21:30,0.497,0.760,0.478,0.934,0.675,0.310,0.549,0.514,��쐼,5.3,��
2024/04/05,21:40,0.498,0.760,0.479,0.933,0.674,0.309,0.550,0.513,��쐼,5.4,��
2024/04/05,21:50,0.498,0.760,0.478,0.933,0.673,0.311,0.550,0.513,��쐼,5.2,��
2024/04/05,22:00,0.500,0.760,0.481,0.934,0.672,0.309,0.550,0.513,��쐼,5.4,��
2024/04/05,22:10,0.500,0.760,0.479,0.935,0.673,0.311,0.550,0.513,��쐼,5.0,��
2024/04/05,22:20,0.499,0.760,0.477,0.936,0.672,0.309,0.550,0.513,��쐼,5.0,��
2024/04/05,22:30,0.499,0.759,0.478,0.935,0.674,0.311,0.551,0.513,��쐼,4.4,��
2024/04/05,22:40,0.499,0.760,0.478,0.936,0.673,0.310,0.550,0.512,��쐼,4.7,��
2024/04/05,22:50,0.499,0.761,0.479,0.936,0.673,0.310,0.550,0.513,��쐼,5.0,��
2024/04/05,23:00,0.497,0.761,0.479,0.935,0.674,0.310,0.551,0.514,��쐼,4.7,��
2024/04/05,23:10,0.499,0.760,0.479,0.933,0.674,0.309,0.550,0.512,��쐼,4.9,��
2024/04/05,23:20,0.499,0.761,0.478,0.935,0.673,0.312,0.551,0.514,��쐼,4.9,��
2024/04/05,23:30,0.499,0.761,0.480,0.936,0.673,0.310,0.551,0.514,��쐼,6.3,��
2024/04/05,23:40,0.499,0.759,0.479,0.934,0.673,0.310,0.550,0.514,��쐼,6.0,�L
2024/04/05,23:50,0.498,0.761,0.479,0.935,0.673,0.311,0.552,0.514,��,5.6,�L
